Flag for Austria Weather past 2 weeks in St. Pölten, Lower Austria, Austria

Now
34 °F

Passing clouds.


Feels Like: 26 °F
Forecast: 28 / 36 °F
Wind: 9 mph from Northeast

Location: Tulln Airport

Current Time: Jan 29, 2015 at 10:01:36 PM

Latest Report: Jan 29, 2015 at 8:50 PM


Visibility: 9 mi

Pressure: 29.24 "Hg

Humidity: 87%

Dew point: 30 °F

Location of St. PöltenLocation

Historic Weather in St. Pölten — Graph

°F

St. Pölten temperature yesterday

Maximum temperature yesterday: 41 °F (at 1:50 PM)
Minimum temperature yesterday: 32 °F (at 5:50 PM)
Average temperature yesterday: 36 °F

Past Weeks' High & Low Weather Summary

 TemperatureHumidityPressure
High45 °F (Jan 15, 11:50 AM)100% (Jan 16, 7:50 PM)30.30 "Hg (Jan 16, 7:50 PM)
Low28 °F (Jan 26, 9:50 PM)61% (Jan 15, 10:50 AM)29.24 "Hg (Jan 29, 8:50 PM)
Average37 °F85%29.96 "Hg
* Reported Jan 14 8:50 PM — Jan 29 8:50 PM, St. Pölten, Weather by CustomWeather, © 2014

Note: Actual official high and low records may vary slightly from our data, if they occured in-between our weather recording intervals... More about our weather records

Advertising

St. Pölten weather history for previous 24 hours

 ConditionsComfort  
Time TempWeatherWind HumidityBarometerVisibility
8:50 PM
Jan 29
34 °FPassing clouds.9 mph87%29.24 "Hg9 mi
7:50 PM36 °FPassing clouds.3 mph81%29.27 "Hg12 mi
6:50 PM37 °FPartly cloudy.9 mph75%29.33 "Hg12 mi
5:50 PM37 °FPassing clouds.12 mph81%29.36 "Hg12 mi
4:50 PM37 °FPartly cloudy.5 mph70%29.39 "Hg31 mi
3:50 PM39 °FBroken clouds.3 mph65%29.42 "Hg37 mi
2:50 PM39 °FBroken clouds.12 mph65%29.45 "Hg37 mi
1:50 PM39 °FPartly sunny.12 mph70%29.47 "Hg25 mi
12:50 PM39 °FPartly sunny.8 mph75%29.50 "Hg25 mi
11:50 AM37 °FPartly sunny.10 mph81%29.50 "Hg25 mi
10:50 AM37 °FPartly sunny.9 mph87%29.53 "Hg25 mi
9:50 AM37 °FBroken clouds.10 mph87%29.53 "Hg19 mi
8:50 AM37 °FBroken clouds.10 mph87%29.53 "Hg19 mi
7:50 AM34 °FPartly sunny.5 mph93%29.53 "Hg19 mi
6:50 AM32 °FPassing clouds.1 mph100%29.53 "Hg6 mi
5:50 AM32 °FLight snow. Passing clouds.2 mph100%29.53 "Hg4 mi
4:50 AM32 °FLight rain. Passing clouds.3 mph87%29.53 "Hg9 mi
Weather by CustomWeather, © 2014

See weather overviewHow to use our weather pages